| time (UTC) | temp C | wind direction | speed KPH | gust KPH | rain 1hr cm | rain 24hr cm | rain mn cm | humidity % | barometer mb |
| 20260508105009 | 9 | 159 | 8.0 | 12.9 | 0.00 | 0.10 | 0.00 | 84 | 1010.8 |
| 20260508104522 | 9 | 153 | 8.0 | 12.9 | 0.00 | 0.10 | 0.00 | 85 | 1010.9 |
| 20260508104011 | 9 | 166 | 8.0 | 11.3 | 0.00 | 0.10 | 0.00 | 85 | 1010.9 |
| 20260508103507 | 9 | 171 | 4.8 | 8.0 | 0.00 | 0.10 | 0.00 | 84 | 1010.9 |
| 20260508102511 | 9 | 116 | 3.2 | 9.7 | 0.00 | 0.10 | 0.00 | 84 | 1010.9 |
| 20260508102003 | 10 | 148 | 4.8 | 9.7 | 0.00 | 0.10 | 0.00 | 84 | 1010.9 |
| 20260508101510 | 10 | 162 | 6.4 | 9.7 | 0.00 | 0.10 | 0.00 | 84 | 1010.9 |
| 20260508101004 | 9 | 146 | 6.4 | 9.7 | 0.00 | 0.10 | 0.00 | 84 | 1010.9 |
| 20260508100505 | 9 | 121 | 3.2 | 8.0 | 0.00 | 0.10 | 0.00 | 86 | 1011.0 |
| 20260508100018 | 9 | 126 | 3.2 | 8.0 | 0.00 | 0.10 | 0.00 | 87 | 1011.0 |
| 20260508095503 | 9 | 132 | 4.8 | 6.4 | 0.00 | 0.10 | 0.00 | 87 | 1011.1 |
| 20260508095002 | 9 | 105 | 3.2 | 6.4 | 0.00 | 0.10 | 0.00 | 87 | 1011.1 |
| 20260508094008 | 8 | 140 | 3.2 | 4.8 | 0.00 | 0.10 | 0.00 | 88 | 1011.2 |
| 20260508093507 | 9 | 110 | 0.0 | 6.4 | 0.00 | 0.10 | 0.00 | 87 | 1011.3 |
| 20260508092507 | 9 | 120 | 4.8 | 9.7 | 0.00 | 0.10 | 0.00 | 86 | 1011.1 |
| 20260508092010 | 9 | 141 | 4.8 | 9.7 | 0.00 | 0.10 | 0.00 | 87 | 1011.1 |
| 20260508091527 | 8 | 156 | 6.4 | 9.7 | 0.00 | 0.10 | 0.00 | 88 | 1011.0 |
| 20260508091004 | 8 | 138 | 4.8 | 8.0 | 0.00 | 0.10 | 0.00 | 88 | 1011.1 |
| 20260508090504 | 8 | 115 | 4.8 | 4.8 | 0.00 | 0.10 | 0.00 | 88 | 1011.2 |
| 20260508090009 | 8 | 127 | 4.8 | 4.8 | 0.00 | 0.10 | 0.00 | 88 | 1011.3 |
| 20260508085502 | 8 | 120 | 3.2 | 4.8 | 0.00 | 0.10 | 0.00 | 88 | 1011.3 |
| 20260508085004 | 8 | 125 | 3.2 | 3.2 | 0.00 | 0.10 | 0.00 | 86 | 1011.4 |
| 20260508084512 | 9 | 261 | 0.0 | 0.0 | 0.00 | 0.10 | 0.00 | 86 | 1011.4 |
| 20260508084004 | 9 | 261 | 0.0 | 0.0 | 0.00 | 0.10 | 0.00 | 87 | 1011.5 |
| 20260508083507 | 9 | 261 | 0.0 | 0.0 | 0.00 | 0.10 | 0.00 | 86 | 1011.5 |
| 20260508083019 | 9 | 261 | 0.0 | 0.0 | 0.00 | 0.10 | 0.00 | 85 | 1011.5 |
| 20260508082508 | 9 | 261 | 0.0 | 0.0 | 0.00 | 0.10 | 0.00 | 85 | 1011.5 |
| 20260508082008 | 9 | 261 | 0.0 | 1.6 | 0.00 | 0.10 | 0.00 | 85 | 1011.5 |
| 20260508081529 | 10 | 355 | 0.0 | 3.2 | 0.00 | 0.10 | 0.00 | 84 | 1011.6 |
| 20260508081009 | 10 | 355 | 0.0 | 6.4 | 0.00 | 0.10 | 0.00 | 83 | 1011.6 |
| 20260508080517 | 10 | 289 | 3.2 | 9.7 | 0.00 | 0.10 | 0.00 | 82 | 1011.5 |
| 20260508080026 | 10 | 292 | 1.6 | 17.7 | 0.00 | 0.10 | 0.00 | 83 | 1011.7 |
| 20260508075504 | 10 | 305 | 3.2 | 17.7 | 0.00 | 0.10 | 0.00 | 82 | 1011.6 |
| 20260508075003 | 10 | 79 | 8.0 | 17.7 | 0.00 | 0.10 | 0.00 | 85 | 1011.6 |
| 20260508074510 | 10 | 312 | 6.4 | 12.9 | 0.00 | 0.10 | 0.00 | 84 | 1011.6 |
| 20260508074003 | 10 | 202 | 9.7 | 14.5 | 0.00 | 0.10 | 0.00 | 85 | 1011.1 |
| 20260508073016 | 9 | 207 | 9.7 | 12.9 | 0.00 | 0.10 | 0.00 | 86 | 1011.2 |
| 20260508072503 | 9 | 200 | 9.7 | 12.9 | 0.00 | 0.10 | 0.00 | 87 | 1011.2 |
| 20260508072007 | 9 | 205 | 8.0 | 14.5 | 0.00 | 0.10 | 0.00 | 87 | 1011.2 |
| 20260508071527 | 9 | 185 | 11.3 | 14.5 | 0.00 | 0.10 | 0.00 | 87 | 1011.2 |
| 20260508070507 | 9 | 193 | 9.7 | 16.1 | 0.00 | 0.10 | 0.00 | 86 | 1011.2 |
| 20260508070027 | 10 | 209 | 9.7 | 16.1 | 0.00 | 0.10 | 0.00 | 86 | 1011.2 |
| 20260508065508 | 10 | 207 | 11.3 | 16.1 | 0.00 | 0.10 | 0.00 | 86 | 1011.2 |
| 20260508064526 | 10 | 214 | 11.3 | 16.1 | 0.00 | 0.10 | 0.00 | 86 | 1011.4 |
| 20260508063505 | 9 | 212 | 11.3 | 14.5 | 0.00 | 0.10 | 0.00 | 88 | 1011.4 |
| 20260508063012 | 9 | 200 | 8.0 | 14.5 | 0.00 | 0.10 | 0.00 | 88 | 1011.5 |
| 20260508062507 | 9 | 186 | 11.3 | 16.1 | 0.00 | 0.10 | 0.00 | 88 | 1011.5 |
| 20260508062004 | 9 | 175 | 11.3 | 16.1 | 0.00 | 0.10 | 0.00 | 89 | 1011.6 |
| 20260508061522 | 9 | 191 | 11.3 | 14.5 | 0.00 | 0.10 | 0.00 | 89 | 1011.6 |
| 20260508061008 | 8 | 167 | 9.7 | 14.5 | 0.00 | 0.10 | 0.00 | 89 | 1011.6 |
| 20260508060508 | 8 | 170 | 9.7 | 12.9 | 0.00 | 0.10 | 0.00 | 90 | 1011.7 |
| 20260508060026 | 8 | 174 | 8.0 | 11.3 | 0.00 | 0.10 | 0.00 | 90 | 1011.7 |
| 20260508055508 | 8 | 173 | 8.0 | 9.7 | 0.00 | 0.10 | 0.00 | 90 | 1011.8 |
| 20260508054524 | 8 | 182 | 6.4 | 8.0 | 0.00 | 0.10 | 0.00 | 90 | 1011.9 |
| 20260508053030 | 9 | 177 | 8.0 | 9.7 | 0.00 | 0.10 | 0.00 | 89 | 1011.9 |
| 20260508052505 | 9 | 203 | 8.0 | 9.7 | 0.00 | 0.10 | 0.00 | 89 | 1012.0 |
| 20260508051521 | 9 | 209 | 8.0 | 11.3 | 0.00 | 0.10 | 0.00 | 88 | 1011.9 |
| 20260508050508 | 10 | 185 | 9.7 | 12.9 | 0.05 | 0.10 | 0.00 | 88 | 1011.9 |
| 20260508050020 | 10 | 192 | 11.3 | 12.9 | 0.05 | 0.10 | 0.00 | 88 | 1012.0 |
| 20260508045506 | 9 | 212 | 8.0 | 11.3 | 0.05 | 0.10 | 0.10 | 89 | 1012.1 |
| 20260508044523 | 9 | 231 | 4.8 | 4.8 | 0.05 | 0.10 | 0.10 | 89 | 1012.3 |
| 20260508043512 | 10 | 205 | 3.2 | 4.8 | 0.05 | 0.10 | 0.10 | 89 | 1012.4 |
| 20260508043023 | 10 | 236 | 0.0 | 6.4 | 0.05 | 0.10 | 0.10 | 89 | 1012.5 |
| 20260508042009 | 10 | 287 | 4.8 | 16.1 | 0.05 | 0.10 | 0.10 | 88 | 1012.6 |
| 20260508041526 | 10 | 254 | 11.3 | 17.7 | 0.05 | 0.10 | 0.10 | 88 | 1012.5 |
| 20260508040504 | 10 | 267 | 9.7 | 11.3 | 0.00 | 0.05 | 0.05 | 87 | 1012.7 |
| 20260508040015 | 10 | 229 | 8.0 | 9.7 | 0.00 | 0.05 | 0.05 | 87 | 1012.2 |
| 20260508035507 | 10 | 210 | 8.0 | 9.7 | 0.00 | 0.05 | 0.05 | 87 | 1012.0 |
| 20260508034519 | 10 | 201 | 4.8 | 8.0 | 0.00 | 0.05 | 0.05 | 87 | 1011.9 |
| 20260508033514 | 10 | 209 | 6.4 | 9.7 | 0.00 | 0.05 | 0.05 | 86 | 1011.9 |
| 20260508033026 | 10 | 174 | 3.2 | 6.4 | 0.00 | 0.05 | 0.05 | 85 | 1012.1 |
| 20260508031527 | 11 | 212 | 4.8 | 16.1 | 0.00 | 0.05 | 0.05 | 83 | 1012.3 |
| 20260508031010 | 11 | 221 | 8.0 | 16.1 | 0.00 | 0.05 | 0.05 | 81 | 1012.4 |
| 20260508030027 | 11 | 231 | 11.3 | 24.1 | 0.00 | 0.05 | 0.05 | 81 | 1012.7 |
| 20260508024516 | 10 | 198 | 14.5 | 22.5 | 0.00 | 0.05 | 0.05 | 81 | 1011.9 |
| 20260508022507 | 10 | 209 | 12.9 | 16.1 | 0.00 | 0.05 | 0.05 | 83 | 1012.0 |
| 20260508014527 | 10 | 214 | 14.5 | 17.7 | 0.00 | 0.05 | 0.05 | 80 | 1011.6 |
| 20260508003028 | 12 | 214 | 14.5 | 24.1 | 0.00 | 0.05 | 0.05 | 71 | 1011.3 |
| 20260508002009 | 12 | 212 | 17.7 | 24.1 | 0.00 | 0.05 | 0.05 | 72 | 1011.2 |
| 20260507235508 | 13 | 229 | 17.7 | 29.0 | 0.00 | 0.05 | 0.05 | 65 | 1011.4 |
| 20260507235010 | 14 | 234 | 20.9 | 29.0 | 0.00 | 0.05 | 0.05 | 64 | 1011.5 |
| 20260507234525 | 14 | 228 | 22.5 | 29.0 | 0.00 | 0.05 | 0.05 | 62 | 1011.5 |
| 20260507234010 | 14 | 246 | 20.9 | 27.4 | 0.00 | 0.05 | 0.05 | 62 | 1011.6 |
| 20260507233516 | 14 | 246 | 20.9 | 25.7 | 0.00 | 0.05 | 0.05 | 60 | 1011.6 |
| 20260507233009 | 15 | 252 | 20.9 | 27.4 | 0.00 | 0.05 | 0.05 | 57 | 1011.6 |
| 20260507232007 | 15 | 249 | 22.5 | 33.8 | 0.00 | 0.05 | 0.05 | 60 | 1011.7 |
| 20260507231530 | 15 | 268 | 24.1 | 33.8 | 0.00 | 0.05 | 0.05 | 57 | 1011.6 |
| 20260507231006 | 15 | 256 | 25.7 | 33.8 | 0.00 | 0.05 | 0.05 | 56 | 1011.5 |
| 20260507230509 | 15 | 272 | 27.4 | 38.6 | 0.00 | 0.05 | 0.05 | 55 | 1011.5 |
| 20260507230023 | 15 | 254 | 25.7 | 38.6 | 0.00 | 0.05 | 0.05 | 56 | 1011.5 |
| 20260507225507 | 15 | 255 | 25.7 | 35.4 | 0.00 | 0.05 | 0.05 | 55 | 1011.6 |
| 20260507224004 | 15 | 245 | 20.9 | 30.6 | 0.00 | 0.05 | 0.05 | 54 | 1011.4 |
| 20260507223503 | 15 | 250 | 24.1 | 30.6 | 0.00 | 0.05 | 0.05 | 52 | 1011.4 |
| 20260507223011 | 15 | 242 | 20.9 | 27.4 | 0.00 | 0.05 | 0.05 | 53 | 1011.8 |
| 20260507222506 | 16 | 245 | 19.3 | 24.1 | 0.00 | 0.05 | 0.05 | 52 | 1011.8 |
| 20260507222003 | 16 | 255 | 16.1 | 22.5 | 0.00 | 0.05 | 0.05 | 54 | 1011.8 |
| 20260507221515 | 15 | 253 | 16.1 | 22.5 | 0.00 | 0.05 | 0.05 | 55 | 1011.7 |
| 20260507221008 | 15 | 253 | 17.7 | 27.4 | 0.00 | 0.05 | 0.05 | 53 | 1011.7 |
| 20260507220506 | 15 | 247 | 16.1 | 27.4 | 0.00 | 0.05 | 0.05 | 55 | 1011.8 |
| 20260507220021 | 15 | 257 | 20.9 | 30.6 | 0.00 | 0.05 | 0.05 | 54 | 1011.8 |
| 20260507215507 | 15 | 251 | 20.9 | 30.6 | 0.00 | 0.05 | 0.05 | 55 | 1011.9 |
| 20260507215008 | 15 | 273 | 24.1 | 29.0 | 0.00 | 0.05 | 0.05 | 54 | 1011.8 |
| 20260507214521 | 15 | 264 | 22.5 | 29.0 | 0.00 | 0.05 | 0.05 | 55 | 1011.8 |
| 20260507214009 | 15 | 269 | 20.9 | 29.0 | 0.00 | 0.05 | 0.05 | 59 | 1011.8 |
| 20260507213006 | 14 | 256 | 19.3 | 25.7 | 0.00 | 0.05 | 0.05 | 61 | 1012.0 |
| 20260507212504 | 14 | 262 | 19.3 | 25.7 | 0.00 | 0.05 | 0.05 | 61 | 1012.0 |
| 20260507212003 | 14 | 267 | 19.3 | 27.4 | 0.00 | 0.05 | 0.05 | 63 | 1012.4 |
| 20260507211004 | 14 | 268 | 22.5 | 35.4 | 0.00 | 0.05 | 0.05 | 60 | 1012.2 |
| 20260507210509 | 14 | 265 | 30.6 | 35.4 | 0.00 | 0.05 | 0.05 | 56 | 1012.2 |
| 20260507205507 | 15 | 266 | 22.5 | 33.8 | 0.00 | 0.05 | 0.05 | 62 | 1012.1 |
| 20260507205006 | 14 | 271 | 25.7 | 33.8 | 0.00 | 0.05 | 0.05 | 59 | 1012.0 |
| 20260507204007 | 14 | 250 | 19.3 | 25.7 | 0.03 | 0.05 | 0.05 | 62 | 1012.1 |
| 20260507203505 | 14 | 246 | 17.7 | 22.5 | 0.03 | 0.05 | 0.05 | 64 | 1012.1 |
| 20260507203025 | 13 | 257 | 19.3 | 22.5 | 0.05 | 0.05 | 0.05 | 69 | 1012.1 |
| 20260507202503 | 13 | 254 | 17.7 | 22.5 | 0.05 | 0.05 | 0.05 | 69 | 1012.1 |
| 20260507202003 | 12 | 220 | 14.5 | 19.3 | 0.05 | 0.05 | 0.05 | 73 | 1012.3 |
| 20260507201509 | 12 | 247 | 11.3 | 20.9 | 0.05 | 0.05 | 0.05 | 78 | 1012.7 |
| 20260507201004 | 12 | 259 | 16.1 | 25.7 | 0.05 | 0.05 | 0.05 | 76 | 1013.1 |
| 20260507200504 | 11 | 264 | 19.3 | 25.7 | 0.05 | 0.05 | 0.05 | 74 | 1013.2 |
| 20260507195504 | 11 | 270 | 16.1 | 30.6 | 0.05 | 0.05 | 0.05 | 78 | 1013.4 |
| 20260507195006 | 11 | 285 | 19.3 | 30.6 | 0.05 | 0.05 | 0.05 | 77 | 1013.6 |
| 20260507194519 | 11 | 266 | 16.1 | 30.6 | 0.05 | 0.05 | 0.05 | 77 | 1014.0 |
| 20260507194006 | 11 | 325 | 4.8 | 9.7 | 0.03 | 0.03 | 0.03 | 78 | 1014.0 |
| 20260507193506 | 11 | 63 | 3.2 | 14.5 | 0.03 | 0.03 | 0.03 | 76 | 1013.9 |
| 20260507192508 | 12 | 323 | 6.4 | 11.3 | 0.00 | 0.00 | 0.00 | 66 | 1013.7 |
| 20260507192011 | 12 | 327 | 1.6 | 8.0 | 0.00 | 0.00 | 0.00 | 67 | 1013.2 |
| 20260507191526 | 12 | 291 | 1.6 | 43.5 | 0.00 | 0.00 | 0.00 | 64 | 1012.9 |
| 20260507191004 | 13 | 352 | 3.2 | 59.5 | 0.00 | 0.00 | 0.00 | 61 | 1013.2 |
| 20260507190504 | 13 | 274 | 35.4 | 59.5 | 0.00 | 0.00 | 0.00 | 52 | 1013.4 |
| 20260507185503 | 16 | 279 | 19.3 | 35.4 | 0.00 | 0.00 | 0.00 | 41 | 1012.6 |
| 20260507185005 | 16 | 266 | 27.4 | 35.4 | 0.00 | 0.00 | 0.00 | 40 | 1012.4 |
| 20260507184006 | 16 | 257 | 29.0 | 40.2 | 0.00 | 0.00 | 0.00 | 39 | 1012.3 |
| 20260507183504 | 16 | 269 | 32.2 | 40.2 | 0.00 | 0.00 | 0.00 | 40 | 1012.3 |
| 20260507183032 | 16 | 259 | 25.7 | 38.6 | 0.00 | 0.00 | 0.00 | 41 | 1012.4 |
| 20260507182505 | 16 | 251 | 25.7 | 38.6 | 0.00 | 0.00 | 0.00 | 40 | 1012.4 |
| 20260507182009 | 16 | 251 | 27.4 | 38.6 | 0.00 | 0.00 | 0.00 | 39 | 1012.4 |
| 20260507181520 | 16 | 269 | 24.1 | 32.2 | 0.00 | 0.00 | 0.00 | 41 | 1012.5 |
| 20260507181013 | 16 | 269 | 24.1 | 45.1 | 0.00 | 0.00 | 0.00 | 38 | 1012.7 |
| 20260507180507 | 16 | 274 | 25.7 | 45.1 | 0.00 | 0.00 | 0.00 | 38 | 1012.7 |
| 20260507180036 | 17 | 249 | 27.4 | 35.4 | 0.00 | 0.00 | 0.00 | 37 | 1012.8 |
| 20260507175507 | 16 | 223 | 25.7 | 40.2 | 0.00 | 0.00 | 0.00 | 37 | 1012.9 |
| 20260507175004 | 16 | 256 | 27.4 | 40.2 | 0.00 | 0.00 | 0.00 | 38 | 1013.0 |
| 20260507174511 | 16 | 218 | 27.4 | 40.2 | 0.00 | 0.00 | 0.00 | 36 | 1013.1 |
| 20260507174004 | 16 | 255 | 30.6 | 40.2 | 0.00 | 0.00 | 0.00 | 37 | 1013.3 |
| 20260507173505 | 16 | 258 | 20.9 | 40.2 | 0.00 | 0.00 | 0.00 | 38 | 1013.3 |
| 20260507173016 | 15 | 251 | 25.7 | 40.2 | 0.00 | 0.00 | 0.00 | 41 | 1013.4 |
| 20260507172506 | 15 | 260 | 29.0 | 41.8 | 0.00 | 0.00 | 0.00 | 41 | 1013.4 |
| 20260507172008 | 16 | 229 | 30.6 | 41.8 | 0.00 | 0.00 | 0.00 | 38 | 1013.5 |
| 20260507171520 | 15 | 259 | 24.1 | 40.2 | 0.00 | 0.00 | 0.00 | 37 | 1013.7 |
| 20260507171007 | 15 | 229 | 25.7 | 38.6 | 0.00 | 0.00 | 0.00 | 37 | 1013.9 |
| 20260507170507 | 15 | 240 | 29.0 | 37.0 | 0.00 | 0.00 | 0.00 | 38 | 1013.8 |
| 20260507170024 | 15 | 229 | 25.7 | 33.8 | 0.00 | 0.00 | 0.00 | 39 | 1013.8 |
| 20260507165506 | 15 | 261 | 24.1 | 37.0 | 0.00 | 0.00 | 0.00 | 37 | 1013.9 |
| 20260507165008 | 15 | 232 | 30.6 | 37.0 | 0.00 | 0.00 | 0.00 | 37 | 1013.9 |
| 20260507164524 | 16 | 225 | 22.5 | 37.0 | 0.00 | 0.00 | 0.00 | 36 | 1014.0 |
| 20260507164004 | 15 | 238 | 22.5 | 38.6 | 0.00 | 0.00 | 0.00 | 38 | 1014.1 |
| 20260507163505 | 15 | 248 | 27.4 | 38.6 | 0.00 | 0.00 | 0.00 | 37 | 1014.2 |
| 20260507163012 | 15 | 238 | 22.5 | 37.0 | 0.00 | 0.00 | 0.00 | 40 | 1014.3 |
| 20260507162506 | 15 | 259 | 24.1 | 37.0 | 0.00 | 0.00 | 0.00 | 37 | 1014.4 |
| 20260507162005 | 15 | 255 | 25.7 | 37.0 | 0.00 | 0.00 | 0.00 | 37 | 1014.5 |
| 20260507161533 | 15 | 250 | 25.7 | 37.0 | 0.00 | 0.00 | 0.00 | 36 | 1014.4 |
| 20260507161008 | 15 | 245 | 25.7 | 35.4 | 0.00 | 0.00 | 0.00 | 39 | 1014.4 |
| 20260507160509 | 15 | 250 | 19.3 | 35.4 | 0.00 | 0.00 | 0.00 | 40 | 1014.4 |
| 20260507160033 | 15 | 225 | 24.1 | 33.8 | 0.00 | 0.00 | 0.00 | 41 | 1014.5 |
| 20260507155507 | 14 | 240 | 22.5 | 37.0 | 0.00 | 0.00 | 0.00 | 41 | 1014.7 |
| 20260507155010 | 14 | 257 | 22.5 | 37.0 | 0.00 | 0.00 | 0.00 | 42 | 1014.7 |
| 20260507154532 | 14 | 252 | 25.7 | 37.0 | 0.00 | 0.00 | 0.00 | 41 | 1014.9 |
| 20260507154010 | 14 | 252 | 25.7 | 35.4 | 0.00 | 0.00 | 0.00 | 40 | 1014.9 |
| 20260507153508 | 14 | 252 | 20.9 | 35.4 | 0.00 | 0.00 | 0.00 | 43 | 1014.9 |
| 20260507153026 | 13 | 245 | 25.7 | 45.1 | 0.00 | 0.00 | 0.00 | 44 | 1015.0 |
| 20260507152506 | 13 | 259 | 25.7 | 45.1 | 0.00 | 0.00 | 0.00 | 42 | 1015.2 |
| 20260507152004 | 13 | 258 | 19.3 | 32.2 | 0.00 | 0.00 | 0.00 | 42 | 1015.2 |
| 20260507151532 | 13 | 264 | 22.5 | 33.8 | 0.00 | 0.00 | 0.00 | 44 | 1015.1 |
| 20260507151007 | 13 | 256 | 24.1 | 35.4 | 0.00 | 0.00 | 0.00 | 45 | 1015.1 |
| 20260507150504 | 13 | 264 | 20.9 | 35.4 | 0.00 | 0.00 | 0.00 | 45 | 1015.1 |
| 20260507150022 | 13 | 252 | 22.5 | 32.2 | 0.00 | 0.00 | 0.00 | 44 | 1015.1 |
| 20260507145507 | 13 | 241 | 24.1 | 32.2 | 0.00 | 0.00 | 0.00 | 42 | 1015.2 |
| 20260507145007 | 13 | 240 | 20.9 | 29.0 | 0.00 | 0.00 | 0.00 | 45 | 1015.2 |
| 20260507144521 | 12 | 269 | 20.9 | 29.0 | 0.00 | 0.00 | 0.00 | 45 | 1015.3 |
| 20260507144008 | 12 | 241 | 20.9 | 29.0 | 0.00 | 0.00 | 0.00 | 47 | 1015.3 |
| 20260507143507 | 12 | 233 | 20.9 | 25.7 | 0.00 | 0.00 | 0.00 | 48 | 1015.4 |
| 20260507143006 | 12 | 266 | 22.5 | 27.4 | 0.00 | 0.00 | 0.00 | 49 | 1015.4 |
| 20260507142504 | 12 | 243 | 19.3 | 27.4 | 0.00 | 0.00 | 0.00 | 50 | 1015.5 |
| 20260507142005 | 12 | 243 | 19.3 | 25.7 | 0.00 | 0.00 | 0.00 | 51 | 1015.5 |
| 20260507141512 | 11 | 235 | 20.9 | 27.4 | 0.00 | 0.00 | 0.00 | 52 | 1015.6 |
| 20260507141007 | 11 | 252 | 20.9 | 27.4 | 0.00 | 0.00 | 0.00 | 50 | 1015.7 |
| 20260507140505 | 11 | 231 | 19.3 | 25.7 | 0.00 | 0.00 | 0.00 | 50 | 1015.6 |
| 20260507140019 | 11 | 228 | 17.7 | 25.7 | 0.00 | 0.00 | 0.00 | 50 | 1015.6 |
| 20260507135508 | 11 | 222 | 17.7 | 24.1 | 0.00 | 0.00 | 0.00 | 55 | 1015.6 |
| 20260507135009 | 11 | 227 | 14.5 | 22.5 | 0.00 | 0.00 | 0.00 | 55 | 1015.7 |
| 20260507134529 | 11 | 219 | 16.1 | 22.5 | 0.00 | 0.00 | 0.00 | 56 | 1015.8 |
| 20260507134007 | 11 | 235 | 14.5 | 20.9 | 0.00 | 0.00 | 0.00 | 53 | 1015.9 |
| 20260507133510 | 10 | 251 | 14.5 | 19.3 | 0.00 | 0.00 | 0.00 | 54 | 1015.8 |
| 20260507133022 | 10 | 225 | 14.5 | 17.7 | 0.00 | 0.00 | 0.00 | 56 | 1015.8 |
| 20260507132503 | 10 | 236 | 11.3 | 16.1 | 0.00 | 0.00 | 0.00 | 55 | 1015.8 |
| 20260507132003 | 10 | 217 | 11.3 | 16.1 | 0.00 | 0.00 | 0.00 | 59 | 1015.9 |
| 20260507131517 | 10 | 232 | 9.7 | 14.5 | 0.00 | 0.00 | 0.00 | 59 | 1015.9 |
| 20260507131004 | 9 | 247 | 9.7 | 14.5 | 0.00 | 0.00 | 0.00 | 59 | 1015.9 |
| 20260507130508 | 9 | 230 | 11.3 | 12.9 | 0.00 | 0.00 | 0.00 | 60 | 1016.0 |
| 20260507130013 | 9 | 238 | 9.7 | 12.9 | 0.00 | 0.00 | 0.00 | 62 | 1016.0 |
| 20260507125505 | 8 | 224 | 9.7 | 12.9 | 0.00 | 0.00 | 0.00 | 64 | 1016.0 |
| 20260507125012 | 8 | 240 | 8.0 | 9.7 | 0.00 | 0.00 | 0.00 | 68 | 1016.0 |
| 20260507124515 | 8 | 258 | 8.0 | 9.7 | 0.00 | 0.00 | 0.00 | 68 | 1016.0 |
| 20260507124005 | 8 | 236 | 8.0 | 9.7 | 0.00 | 0.00 | 0.00 | 69 | 1016.0 |
| 20260507123506 | 7 | 241 | 8.0 | 9.7 | 0.00 | 0.00 | 0.00 | 73 | 1016.0 |
| 20260507123021 | 7 | 229 | 8.0 | 9.7 | 0.00 | 0.00 | 0.00 | 72 | 1015.8 |
| 20260507122511 | 7 | 236 | 6.4 | 9.7 | 0.00 | 0.00 | 0.00 | 74 | 1015.8 |
| 20260507122012 | 6 | 227 | 6.4 | 9.7 | 0.00 | 0.00 | 0.00 | 74 | 1015.6 |
| 20260507121526 | 6 | 225 | 8.0 | 9.7 | 0.00 | 0.00 | 0.00 | 74 | 1015.6 |
| 20260507121003 | 6 | 202 | 6.4 | 8.0 | 0.00 | 0.00 | 0.00 | 77 | 1015.5 |
| 20260507120507 | 5 | 219 | 4.8 | 8.0 | 0.00 | 0.00 | 0.00 | 80 | 1015.5 |
| 20260507120011 | 5 | 213 | 4.8 | 6.4 | 0.00 | 0.00 | 0.00 | 82 | 1015.4 |
| 20260507115504 | 4 | 206 | 3.2 | 4.8 | 0.00 | 0.00 | 0.00 | 85 | 1015.5 |
| 20260507115007 | 3 | 205 | 3.2 | 4.8 | 0.00 | 0.00 | 0.00 | 87 | 1015.6 |
| 20260507114524 | 3 | 204 | 1.6 | 4.8 | 0.00 | 0.00 | 0.00 | 88 | 1015.5 |
| 20260507114006 | 3 | 201 | 3.2 | 4.8 | 0.00 | 0.00 | 0.00 | 88 | 1015.5 |
| 20260507113506 | 3 | 172 | 1.6 | 3.2 | 0.00 | 0.00 | 0.00 | 88 | 1015.5 |
| 20260507113020 | 2 | 169 | 1.6 | 3.2 | 0.00 | 0.00 | 0.00 | 88 | 1015.3 |
| 20260507112507 | 2 | 168 | 0.0 | 1.6 | 0.00 | 0.00 | 0.00 | 88 | 1015.3 |
| 20260507112007 | 2 | 207 | 0.0 | 0.0 | 0.00 | 0.00 | 0.00 | 86 | 1015.3 |
| 20260507111524 | 2 | 207 | 0.0 | 0.0 | 0.00 | 0.00 | 0.00 | 85 | 1015.3 |
| 20260507111008 | 2 | 207 | 0.0 | 0.0 | 0.00 | 0.00 | 0.00 | 84 | 1015.3 |
| 20260507110508 | 2 | 207 | 0.0 | 0.0 | 0.00 | 0.00 | 0.00 | 84 | 1015.3 |
| 20260507110035 | 2 | 207 | 0.0 | 0.0 | 0.00 | 0.00 | 0.00 | 84 | 1015.3 |
| 20260507105507 | 2 | 207 | 0.0 | 0.0 | 0.00 | 0.00 | 0.00 | 83 | 1015.2 |